Location: Campillo
(40.8621°N, 4.2488°W)
Time: 13:14:34
(UTC+00:00)

Cosmos 1833 Rocket - Pass Details

Date: 11 May 2021
Orbit: 831 x 841 km, 71.0° (Epoch: 13 June)

Event Time Altitude Azimuth Distance (km) Brightness Sun altitude
Rises 22:40:21 0° 325° (NW) 3,403 7.1 -27.2°
Reaches altitude 10° 22:43:06 10° 314° (NW) 2,464 6.0 -27.4°
Maximum altitude 22:47:48 28° 257° (WSW) 1,537 4.1 -27.8°
Enters shadow 22:48:31 27° 245° (WSW) 1,564 4.0 -27.8°
